SJX713 WIII-RCTP

Flight info

Callsign SJX713
Flight time N/A
Altitude 37000
Route AMBOY2A/07L AMBOY P648 VJN/N0491F390 M646 MIA/N0492F380 B462 LAO/N0488F390 M646 HCN W4 TNN TNN1A
Aircraft A35K/H-SDE2E3GHIJ3J4J5LM1ORWXY/LB1D1

Departure

Time N/A
Airport Soekarno-Hatta International Airport (WIII)

Arrival

Time 2026-04-30 14:04
Airport Taiwan Taoyuan International Airport (RCTP)
Time Latitude Longitude Altitude Speed Heading
2026-04-30 12:26 13.22376 120.40118 36933 ft 518 kts 25°
2026-04-30 12:26 13.25645 120.41689 36933 ft 522 kts 25°
2026-04-30 12:27 13.32271 120.44875 36937 ft 527 kts 25°
2026-04-30 12:27 13.38756 120.47996 36938 ft 529 kts 25°
2026-04-30 12:28 13.44963 120.50980 36942 ft 522 kts 25°
2026-04-30 12:28 13.51461 120.54106 36947 ft 512 kts 25°
2026-04-30 12:29 13.57900 120.57208 36948 ft 511 kts 25°
2026-04-30 12:29 13.64338 120.60317 36945 ft 512 kts 25°
2026-04-30 12:30 13.70794 120.63429 36945 ft 512 kts 25°
2026-04-30 12:30 13.77247 120.66539 36947 ft 512 kts 25°
2026-04-30 12:31 13.83703 120.69655 36946 ft 512 kts 25°
2026-04-30 12:31 13.90158 120.72774 36946 ft 513 kts 25°
2026-04-30 12:32 13.96620 120.75904 36950 ft 514 kts 25°
2026-04-30 12:32 14.03097 120.79034 36946 ft 514 kts 25°
2026-04-30 12:33 14.09569 120.82164 36947 ft 514 kts 25°
2026-04-30 12:33 14.16043 120.85299 36939 ft 514 kts 25°
2026-04-30 12:34 14.22517 120.88442 36941 ft 515 kts 25°
2026-04-30 12:34 14.28960 120.91565 36931 ft 515 kts 25°
2026-04-30 12:35 14.35448 120.94710 36934 ft 515 kts 25°
2026-04-30 12:35 14.41935 120.97858 36933 ft 515 kts 25°
2026-04-30 12:36 14.48489 121.00852 36931 ft 515 kts 18°
2026-04-30 12:36 14.55487 121.02163 36937 ft 512 kts
2026-04-30 12:37 14.62605 121.02328 36935 ft 511 kts 358°
2026-04-30 12:37 14.69723 121.02288 36933 ft 511 kts 358°
2026-04-30 12:38 14.76840 121.02254 36931 ft 512 kts 358°
2026-04-30 12:38 14.83960 121.02256 36930 ft 512 kts 358°
2026-04-30 12:39 14.91089 121.02275 36941 ft 512 kts 358°
2026-04-30 12:39 14.98215 121.02296 36947 ft 512 kts 358°
2026-04-30 12:40 15.05294 121.02316 36948 ft 512 kts 358°
2026-04-30 12:40 15.12423 121.02336 36947 ft 513 kts 358°
2026-04-30 12:41 15.19557 121.02354 36950 ft 513 kts 358°
2026-04-30 12:41 15.26694 121.02373 36949 ft 513 kts 358°
2026-04-30 12:42 15.33834 121.02392 36955 ft 513 kts 358°
2026-04-30 12:42 15.40973 121.02412 36952 ft 513 kts 358°
2026-04-30 12:43 15.48098 121.02281 36955 ft 511 kts 352°
2026-04-30 12:43 15.55129 121.01223 36954 ft 510 kts 348°
2026-04-30 12:44 15.62106 120.99961 36964 ft 509 kts 347°
2026-04-30 12:44 15.69088 120.98662 36964 ft 510 kts 347°
2026-04-30 12:45 15.76072 120.97376 36974 ft 510 kts 347°
2026-04-30 12:45 15.83062 120.96101 36970 ft 510 kts 347°
2026-04-30 12:46 15.90058 120.94828 36979 ft 510 kts 347°
2026-04-30 12:46 15.97010 120.93563 36998 ft 511 kts 347°
2026-04-30 12:47 16.04014 120.92289 36996 ft 510 kts 347°
2026-04-30 12:47 16.10999 120.91012 36999 ft 510 kts 347°
2026-04-30 12:48 16.17989 120.89732 36997 ft 510 kts 347°
2026-04-30 12:48 16.24986 120.88456 37011 ft 510 kts 347°
2026-04-30 12:49 16.31983 120.87177 37015 ft 511 kts 347°
2026-04-30 12:49 16.38980 120.85895 37032 ft 510 kts 347°
2026-04-30 12:50 16.45980 120.84612 37049 ft 511 kts 347°
2026-04-30 12:50 16.52981 120.83329 37048 ft 511 kts 347°
2026-04-30 12:51 16.59981 120.82047 37065 ft 511 kts 347°
2026-04-30 12:51 16.66976 120.80765 37064 ft 510 kts 347°
2026-04-30 12:52 16.73970 120.79478 37065 ft 510 kts 347°
2026-04-30 12:52 16.80954 120.78194 37068 ft 510 kts 347°
2026-04-30 12:53 16.87944 120.76907 37065 ft 510 kts 347°
2026-04-30 12:53 16.94926 120.75622 37063 ft 509 kts 346°
2026-04-30 12:54 17.01900 120.74336 37056 ft 509 kts 346°
2026-04-30 12:54 17.08826 120.73062 37022 ft 509 kts 346°
2026-04-30 12:55 17.15802 120.71775 37022 ft 509 kts 346°
2026-04-30 12:55 17.22777 120.70488 37013 ft 509 kts 346°
2026-04-30 12:56 17.29748 120.69204 37013 ft 508 kts 346°
2026-04-30 12:56 17.36720 120.67923 36995 ft 509 kts 346°
2026-04-30 12:57 17.43696 120.66643 36998 ft 509 kts 346°
2026-04-30 12:57 17.50665 120.65366 36993 ft 508 kts 346°
2026-04-30 12:58 17.57627 120.64088 36985 ft 508 kts 346°
2026-04-30 12:58 17.64586 120.62809 36985 ft 508 kts 346°
2026-04-30 12:59 17.71557 120.61530 36965 ft 508 kts 346°
2026-04-30 12:59 17.78517 120.60239 36966 ft 508 kts 346°
2026-04-30 13:00 17.85473 120.58942 36957 ft 507 kts 345°
2026-04-30 13:00 17.92423 120.57647 36961 ft 507 kts 345°
2026-04-30 13:01 17.99372 120.56355 36962 ft 507 kts 345°
2026-04-30 13:01 18.06328 120.55068 36964 ft 507 kts 345°
2026-04-30 13:02 18.13278 120.53772 36971 ft 507 kts 345°
2026-04-30 13:02 18.20343 120.53177 36965 ft 514 kts 357°
2026-04-30 13:03 18.27503 120.53585 36961 ft 516 kts
2026-04-30 13:03 18.34661 120.54186 36966 ft 516 kts
2026-04-30 13:04 18.40616 120.54701 36966 ft 516 kts
2026-04-30 13:04 18.47774 120.55296 36971 ft 516 kts
2026-04-30 13:05 18.54929 120.55874 36977 ft 515 kts
2026-04-30 13:06 18.65653 120.56733 36980 ft 515 kts
2026-04-30 13:06 18.72806 120.57312 36987 ft 515 kts
2026-04-30 13:07 18.79963 120.57886 36989 ft 516 kts
2026-04-30 13:07 18.87132 120.58460 36987 ft 517 kts
2026-04-30 13:08 18.94297 120.59036 36995 ft 517 kts
2026-04-30 13:08 19.01466 120.59614 37006 ft 517 kts 360°
2026-04-30 13:09 19.08586 120.60189 37002 ft 517 kts 360°
2026-04-30 13:09 19.15750 120.60774 36998 ft 516 kts 360°
2026-04-30 13:10 19.22915 120.61351 36996 ft 516 kts 360°
2026-04-30 13:10 19.30085 120.61928 37000 ft 516 kts 360°
2026-04-30 13:11 19.37248 120.62508 36999 ft 517 kts 360°
2026-04-30 13:11 19.44420 120.63096 37004 ft 516 kts 360°
2026-04-30 13:12 19.51589 120.63679 37003 ft 516 kts 359°
2026-04-30 13:12 19.58699 120.63508 37012 ft 509 kts 349°
2026-04-30 13:13 19.69231 120.62310 36995 ft 507 kts 348°
2026-04-30 13:14 19.79750 120.61066 36996 ft 507 kts 348°
2026-04-30 13:14 19.90266 120.59819 37007 ft 507 kts 348°
2026-04-30 13:15 20.00771 120.58572 37005 ft 506 kts 348°
2026-04-30 13:16 20.07771 120.57740 36998 ft 506 kts 348°
2026-04-30 13:16 20.14730 120.56912 37005 ft 506 kts 348°
2026-04-30 13:17 20.25260 120.55659 37004 ft 505 kts 348°
2026-04-30 13:18 20.35679 120.54416 37009 ft 504 kts 348°
2026-04-30 13:18 20.46146 120.53166 37007 ft 504 kts 348°
2026-04-30 13:19 20.53119 120.52332 37010 ft 504 kts 348°
2026-04-30 13:19 20.60091 120.51498 37009 ft 504 kts 348°
2026-04-30 13:20 20.67059 120.50663 37013 ft 504 kts 348°
2026-04-30 13:20 20.74032 120.49828 37011 ft 504 kts 348°
2026-04-30 13:21 20.81001 120.48991 37017 ft 504 kts 349°
2026-04-30 13:22 20.91448 120.47736 37014 ft 504 kts 349°
2026-04-30 13:22 21.01894 120.46480 37020 ft 504 kts 349°
2026-04-30 13:23 21.12342 120.45221 37023 ft 503 kts 349°
2026-04-30 13:24 21.26260 120.43541 37018 ft 503 kts 349°
2026-04-30 13:25 21.40185 120.41858 37021 ft 503 kts 349°
2026-04-30 13:26 21.57513 120.39759 37027 ft 502 kts 349°
2026-04-30 13:28 21.74880 120.37649 37028 ft 503 kts 349°
2026-04-30 13:28 21.85307 120.36381 37020 ft 503 kts 349°
2026-04-30 13:29 21.99207 120.34686 37021 ft 503 kts 348°
2026-04-30 13:31 22.16581 120.32563 37020 ft 503 kts 348°
2026-04-30 13:32 22.33953 120.30436 37002 ft 502 kts 348°
2026-04-30 13:33 22.47851 120.28730 36996 ft 503 kts 348°
2026-04-30 13:34 22.58270 120.27449 36998 ft 502 kts 348°
2026-04-30 13:35 22.72108 120.25743 36997 ft 502 kts 348°
2026-04-30 13:36 22.85979 120.24032 37044 ft 501 kts 348°
2026-04-30 13:36 22.96361 120.22748 37046 ft 500 kts 348°
2026-04-30 13:37 23.06726 120.21465 36690 ft 499 kts 348°
2026-04-30 13:38 23.13657 120.20774 36194 ft 505 kts 355°
2026-04-30 13:38 23.17178 120.21018 35953 ft 509 kts
2026-04-30 13:38 23.24237 120.21862 35463 ft 511 kts
2026-04-30 13:39 23.31269 120.22722 34356 ft 507 kts
2026-04-30 13:39 23.38294 120.23564 32734 ft 509 kts
2026-04-30 13:40 23.41816 120.23986 31925 ft 509 kts
2026-04-30 13:40 23.45338 120.24407 31108 ft 509 kts
2026-04-30 13:40 23.48869 120.24829 30271 ft 511 kts
2026-04-30 13:40 23.52412 120.25253 29323 ft 511 kts
2026-04-30 13:41 23.55948 120.25677 28523 ft 509 kts
2026-04-30 13:41 23.59412 120.26093 27919 ft 503 kts
2026-04-30 13:41 23.62864 120.26509 27317 ft 497 kts
2026-04-30 13:41 23.66285 120.26920 26709 ft 492 kts
2026-04-30 13:42 23.69663 120.27369 26095 ft 488 kts
2026-04-30 13:42 23.72970 120.28256 25455 ft 488 kts 13°
2026-04-30 13:42 23.79403 120.30478 24245 ft 480 kts 14°
2026-04-30 13:43 23.82588 120.31591 23413 ft 480 kts 14°
2026-04-30 13:43 23.85773 120.32699 22518 ft 480 kts 14°
2026-04-30 13:43 23.88914 120.33793 21471 ft 467 kts 14°
2026-04-30 13:43 23.91946 120.34851 20857 ft 444 kts 13°
2026-04-30 13:44 23.94779 120.35839 20364 ft 420 kts 13°
2026-04-30 13:44 23.97491 120.36783 19949 ft 398 kts 13°
2026-04-30 13:44 24.00071 120.37681 19585 ft 378 kts 13°
2026-04-30 13:44 24.02527 120.38534 19087 ft 364 kts 12°
2026-04-30 13:45 24.07288 120.40179 17593 ft 354 kts 12°
2026-04-30 13:45 24.09594 120.41099 16780 ft 354 kts 20°
2026-04-30 13:45 24.11741 120.42430 16019 ft 353 kts 27°
2026-04-30 13:46 24.13760 120.43874 15312 ft 349 kts 30°
2026-04-30 13:46 24.15775 120.45373 14936 ft 357 kts 30°
2026-04-30 13:46 24.17856 120.46941 14774 ft 364 kts 31°
2026-04-30 13:46 24.19872 120.48481 14467 ft 345 kts 31°
2026-04-30 13:47 24.21820 120.49973 13752 ft 340 kts 31°
2026-04-30 13:47 24.23753 120.51449 13042 ft 334 kts 31°
2026-04-30 13:47 24.25631 120.52886 12412 ft 326 kts 32°
2026-04-30 13:47 24.27486 120.54303 11842 ft 323 kts 32°
2026-04-30 13:48 24.29329 120.55712 11474 ft 323 kts 32°
2026-04-30 13:48 24.31170 120.57119 11333 ft 322 kts 32°
2026-04-30 13:48 24.33005 120.58523 11239 ft 322 kts 32°
2026-04-30 13:48 24.34841 120.59929 11119 ft 320 kts 32°
2026-04-30 13:49 24.36639 120.61306 10985 ft 319 kts 32°
2026-04-30 13:49 24.38459 120.62700 10855 ft 318 kts 32°
2026-04-30 13:49 24.40273 120.64095 10698 ft 319 kts 31°
2026-04-30 13:49 24.42090 120.65484 10549 ft 318 kts 32°
2026-04-30 13:50 24.43910 120.66878 10192 ft 318 kts 31°
2026-04-30 13:50 24.47524 120.69643 9449 ft 315 kts 32°
2026-04-30 13:50 24.49313 120.71013 9119 ft 312 kts 32°
2026-04-30 13:51 24.51087 120.72373 8795 ft 311 kts 32°
2026-04-30 13:51 24.52861 120.73736 8460 ft 312 kts 32°
2026-04-30 13:51 24.54643 120.75104 8126 ft 311 kts 33°
2026-04-30 13:51 24.55816 120.76004 7913 ft 309 kts 33°
2026-04-30 13:52 24.58129 120.77780 7475 ft 304 kts 33°
2026-04-30 13:52 24.59861 120.79113 7161 ft 304 kts 34°
2026-04-30 13:52 24.61608 120.80454 6837 ft 307 kts 34°
2026-04-30 13:52 24.63340 120.81792 6524 ft 302 kts 34°
2026-04-30 13:53 24.64472 120.82666 6290 ft 298 kts 34°
2026-04-30 13:53 24.66158 120.83973 5950 ft 295 kts 33°
2026-04-30 13:53 24.67828 120.85265 5612 ft 292 kts 33°
2026-04-30 13:53 24.69480 120.86540 5316 ft 289 kts 33°
2026-04-30 13:54 24.71109 120.87797 5001 ft 283 kts 33°
2026-04-30 13:54 24.72704 120.89027 4696 ft 277 kts 33°
2026-04-30 13:54 24.74274 120.90238 4395 ft 273 kts 34°
2026-04-30 13:54 24.75811 120.91424 4109 ft 266 kts 33°
2026-04-30 13:55 24.77300 120.92571 3980 ft 259 kts 34°
2026-04-30 13:55 24.78771 120.93712 3890 ft 255 kts 34°
2026-04-30 13:55 24.80186 120.94811 3777 ft 240 kts 34°
2026-04-30 13:55 24.81492 120.95822 3582 ft 220 kts 34°
2026-04-30 13:56 24.82683 120.96725 3436 ft 200 kts 36°
2026-04-30 13:56 24.83769 120.97557 3282 ft 181 kts 36°
2026-04-30 13:56 24.84751 120.98317 3104 ft 164 kts 37°
2026-04-30 13:56 24.85694 120.99056 3052 ft 178 kts 37°
2026-04-30 13:57 24.86748 120.99877 2986 ft 186 kts 37°
2026-04-30 13:57 24.87770 121.00664 2985 ft 171 kts 37°
2026-04-30 13:57 24.88697 121.01374 2998 ft 155 kts 38°
2026-04-30 13:57 24.89568 121.02052 3003 ft 154 kts 38°
2026-04-30 13:58 24.90451 121.02739 2993 ft 156 kts 38°
2026-04-30 13:58 24.92242 121.04137 2999 ft 159 kts 37°
2026-04-30 13:58 24.93145 121.04833 2995 ft 159 kts 38°
2026-04-30 13:59 24.94047 121.05535 2997 ft 155 kts 38°
2026-04-30 13:59 24.94886 121.06196 2994 ft 143 kts 38°
2026-04-30 13:59 24.95639 121.06892 3014 ft 141 kts 46°
2026-04-30 13:59 24.96321 121.07679 3006 ft 143 kts 49°
2026-04-30 14:00 24.96991 121.08497 3004 ft 144 kts 49°
2026-04-30 14:00 24.98300 121.10128 2778 ft 139 kts 49°
2026-04-30 14:00 24.98924 121.10915 2581 ft 134 kts 51°
2026-04-30 14:01 24.99530 121.11690 2416 ft 132 kts 51°
2026-04-30 14:01 25.00128 121.12453 2233 ft 132 kts 49°
2026-04-30 14:01 25.00737 121.13222 2065 ft 133 kts 51°
2026-04-30 14:01 25.01332 121.13982 1883 ft 132 kts 51°
2026-04-30 14:02 25.01928 121.14744 1719 ft 130 kts 51°
2026-04-30 14:02 25.02518 121.15498 1532 ft 128 kts 50°
2026-04-30 14:02 25.03101 121.16242 1367 ft 128 kts 49°
2026-04-30 14:02 25.03692 121.16996 1162 ft 131 kts 49°
2026-04-30 14:03 25.04278 121.17762 999 ft 131 kts 50°
2026-04-30 14:03 25.04867 121.18525 821 ft 130 kts 49°
2026-04-30 14:03 25.05450 121.19269 653 ft 130 kts 49°
2026-04-30 14:03 25.06048 121.20033 463 ft 132 kts 47°
2026-04-30 14:04 25.06652 121.20794 309 ft 132 kts 50°
2026-04-30 14:04 25.07247 121.21551 164 ft 133 kts 51°
2026-04-30 14:04 25.07846 121.22307 99 ft 120 kts 48°
2026-04-30 14:04 25.08238 121.22804 94 ft 39 kts 49°
2026-04-30 14:05 25.08363 121.22970 93 ft 25 kts 56°
2026-04-30 14:05 25.08432 121.23142 91 ft 20 kts 74°
2026-04-30 14:05 25.08455 121.23261 93 ft 9 kts 80°
2026-04-30 14:05 25.08468 121.23335 90 ft 11 kts 78°
2026-04-30 14:06 25.08482 121.23421 91 ft 12 kts 90°
2026-04-30 14:06 25.08376 121.23466 91 ft 10 kts 228°
2026-04-30 14:07 25.08280 121.23385 92 ft 5 kts 200°
2026-04-30 14:07 25.08242 121.23358 90 ft 8 kts 205°
2026-04-30 14:07 25.08194 121.23374 94 ft 8 kts 148°
2026-04-30 14:08 25.08176 121.23391 89 ft 0 kts 140°